TimeCST,TemperatureF,Dew PointF,Humidity,Sea Level PressureIn,VisibilityMPH,Wind Direction,Wind SpeedMPH,Gust SpeedMPH,PrecipitationIn,Events,Conditions,WindDirDegrees,DateUTC
12:43 AM,69.8,66.2,88,29.82,10.0,South,6.9,-,N/A,,Overcast,190,2012-12-10 06:43:00
12:50 AM,69.8,66.2,88,29.81,10.0,SSW,8.1,-,N/A,,Overcast,200,2012-12-10 06:50:00
12:53 AM,70.0,66.9,90,29.81,10.0,South,4.6,-,N/A,,Overcast,190,2012-12-10 06:53:00
1:06 AM,69.8,66.2,88,29.81,10.0,South,5.8,-,N/A,,Overcast,180,2012-12-10 07:06:00
1:16 AM,69.8,66.2,88,29.80,10.0,South,5.8,-,N/A,,Overcast,180,2012-12-10 07:16:00
1:31 AM,66.2,62.6,88,29.80,8.0,NNW,13.8,-,0.02,Rain-Thunderstorm,Light Thunderstorms and Rain,330,2012-12-10 07:31:00
1:49 AM,64.4,60.8,88,29.80,10.0,NNW,8.1,18.4,0.06,Rain-Thunderstorm,Light Thunderstorms and Rain,340,2012-12-10 07:49:00
1:53 AM,64.0,60.1,87,29.80,10.0,NNW,4.6,-,0.07,Rain-Thunderstorm,Light Thunderstorms and Rain,340,2012-12-10 07:53:00
2:22 AM,62.6,60.8,94,29.80,1.8,WNW,8.1,-,0.21,Rain-Thunderstorm,Heavy Thunderstorms and Rain,300,2012-12-10 08:22:00
2:34 AM,62.6,62.6,100,29.79,1.0,WNW,10.4,-,0.48,Rain-Thunderstorm,Heavy Thunderstorms and Rain,290,2012-12-10 08:34:00
2:40 AM,62.6,60.8,94,29.79,3.0,NW,10.4,-,0.48,Rain-Thunderstorm,Light Thunderstorms and Rain,310,2012-12-10 08:40:00
2:53 AM,63.0,61.0,93,29.79,7.0,NW,8.1,16.1,0.48,Rain-Thunderstorm,Light Thunderstorms and Rain,320,2012-12-10 08:53:00
3:10 AM,60.8,60.8,100,29.80,7.0,NNW,9.2,17.3,0.00,Rain-Thunderstorm,Light Thunderstorms and Rain,340,2012-12-10 09:10:00
3:53 AM,57.9,55.9,93,29.80,4.0,NNW,8.1,-,0.02,Thunderstorm,Overcast,330,2012-12-10 09:53:00
4:00 AM,57.2,55.4,94,29.81,4.0,NNW,9.2,-,N/A,,Overcast,330,2012-12-10 10:00:00
4:21 AM,55.4,53.6,94,29.81,2.0,NW,9.2,-,N/A,,Overcast,320,2012-12-10 10:21:00
4:38 AM,55.4,53.6,94,29.83,5.0,NNW,11.5,-,0.00,Rain,Light Rain,330,2012-12-10 10:38:00
4:46 AM,55.4,53.6,94,29.83,6.0,NNW,6.9,-,0.00,Rain,Light Rain,330,2012-12-10 10:46:00
4:53 AM,54.0,52.0,93,29.83,6.0,NW,10.4,17.3,0.00,Rain,Light Rain,310,2012-12-10 10:53:00
5:53 AM,51.1,48.9,92,29.87,7.0,NNW,12.7,20.7,0.00,,Overcast,340,2012-12-10 11:53:00
6:53 AM,48.0,46.0,93,29.91,6.0,NNW,11.5,19.6,0.00,Rain,Light Rain,330,2012-12-10 12:53:00
7:36 AM,46.4,42.8,87,29.94,10.0,NNW,10.4,26.5,0.00,,Overcast,330,2012-12-10 13:36:00
7:53 AM,46.0,42.1,86,29.95,10.0,NNW,12.7,21.9,0.00,,Overcast,330,2012-12-10 13:53:00
8:15 AM,46.4,39.2,76,29.97,10.0,NW,13.8,19.6,N/A,,Overcast,310,2012-12-10 14:15:00
8:41 AM,44.6,37.4,76,29.97,10.0,NNW,17.3,24.2,N/A,,Overcast,330,2012-12-10 14:41:00
8:53 AM,43.0,35.1,74,29.97,10.0,NNW,13.8,27.6,N/A,,Overcast,340,2012-12-10 14:53:00
9:40 AM,44.6,33.8,66,29.99,10.0,NNW,9.2,18.4,N/A,,Overcast,340,2012-12-10 15:40:00
9:53 AM,44.1,34.0,68,30.00,10.0,NNW,8.1,-,N/A,,Mostly Cloudy,330,2012-12-10 15:53:00
10:50 AM,48.2,35.6,62,29.98,10.0,North,11.5,-,N/A,,Mostly Cloudy,360,2012-12-10 16:50:00
10:53 AM,48.0,36.0,63,29.98,10.0,North,9.2,-,N/A,,Mostly Cloudy,360,2012-12-10 16:53:00
11:53 AM,48.0,35.1,61,29.99,10.0,NNW,11.5,18.4,N/A,,Overcast,330,2012-12-10 17:53:00
12:53 PM,48.0,33.1,56,29.97,10.0,NW,16.1,20.7,N/A,,Overcast,320,2012-12-10 18:53:00
1:27 PM,48.2,33.8,58,29.96,10.0,NNW,10.4,-,N/A,,Mostly Cloudy,330,2012-12-10 19:27:00
1:53 PM,48.9,33.1,54,29.96,10.0,NW,10.4,17.3,N/A,,Clear,320,2012-12-10 19:53:00
2:53 PM,52.0,28.9,41,29.96,10.0,NNW,8.1,-,N/A,,Clear,330,2012-12-10 20:53:00
3:53 PM,51.1,27.0,39,29.97,10.0,Variable,6.9,-,N/A,,Clear,0,2012-12-10 21:53:00
4:53 PM,48.9,32.0,52,29.98,10.0,NW,6.9,-,N/A,,Clear,320,2012-12-10 22:53:00
5:53 PM,46.0,33.1,61,30.00,10.0,NW,6.9,-,N/A,,Clear,320,2012-12-10 23:53:00
6:53 PM,43.0,32.0,65,30.01,10.0,NNW,6.9,-,N/A,,Clear,340,2012-12-11 00:53:00
7:53 PM,41.0,30.0,65,30.03,10.0,NNW,5.8,-,N/A,,Clear,340,2012-12-11 01:53:00
8:53 PM,39.0,28.9,67,30.06,10.0,NNW,4.6,-,N/A,,Clear,330,2012-12-11 02:53:00
9:53 PM,37.0,28.9,73,30.08,10.0,NNW,5.8,-,N/A,,Clear,330,2012-12-11 03:53:00
10:53 PM,36.0,28.0,73,30.09,10.0,NNW,5.8,-,N/A,,Clear,340,2012-12-11 04:53:00
11:53 PM,36.0,27.0,70,30.09,10.0,Calm,Calm,-,N/A,,Clear,0,2012-12-11 05:53:00